| time (UTC) | temp F | wind direction | speed MPH | gust MPH | rain 1hr in | rain 24hr in | rain mn in | humidity % | barometer mb |
| 20260504110646 | 57 | 0 | 0.0 | 0.0 | 0.00 | 0.00 | 0.00 | 89 | 1015.1 |
| 20260504110119 | 57 | 171 | 0.0 | 0.0 | 0.00 | 0.00 | 0.00 | 89 | 1015.0 |
| 20260504100329 | 58 | 171 | 0.0 | 0.0 | 0.00 | 0.00 | 0.00 | 86 | 1015.3 |
| 20260504090107 | 59 | 0 | 0.0 | 0.0 | 0.00 | 0.00 | 0.00 | 85 | 1015.9 |
| 20260504081418 | 60 | 0 | 0.0 | 0.0 | 0.00 | 0.00 | 0.00 | 82 | 1016.1 |
| 20260504080916 | 60 | 0 | 0.0 | 0.0 | 0.00 | 0.00 | 0.00 | 82 | 1016.0 |
| 20260504080349 | 60 | 171 | 0.0 | 0.0 | 0.00 | 0.00 | 0.00 | 81 | 1016.1 |
| 20260504080105 | 60 | 0 | 0.0 | 0.0 | 0.00 | 0.00 | 0.00 | 81 | 1016.2 |
| 20260504070150 | 61 | 171 | 0.0 | 1.0 | 0.00 | 0.00 | 0.00 | 80 | 1017.3 |
| 20260504050533 | 63 | 170 | 0.0 | 1.0 | 0.00 | 0.00 | 0.00 | 74 | 1018.0 |
| 20260504050007 | 63 | 0 | 0.0 | 1.0 | 0.00 | 0.00 | 0.00 | 73 | 1018.0 |
| 20260504045706 | 64 | 0 | 0.0 | 0.0 | 0.00 | 0.00 | 0.00 | 72 | 1017.9 |
| 20260504044913 | 64 | 0 | 0.0 | 0.0 | 0.00 | 0.00 | 0.00 | 71 | 1018.0 |
| 20260504044411 | 64 | 0 | 0.0 | 0.0 | 0.00 | 0.00 | 0.00 | 71 | 1018.0 |
| 20260504043908 | 65 | 0 | 0.0 | 0.0 | 0.00 | 0.00 | 0.00 | 71 | 1018.1 |
| 20260504043404 | 65 | 0 | 0.0 | 0.0 | 0.00 | 0.00 | 0.00 | 70 | 1018.1 |
| 20260504042838 | 65 | 0 | 0.0 | 2.0 | 0.00 | 0.00 | 0.00 | 69 | 1018.0 |
| 20260504042334 | 65 | 0 | 0.0 | 2.0 | 0.00 | 0.00 | 0.00 | 69 | 1018.1 |
| 20260504041808 | 65 | 0 | 0.0 | 1.0 | 0.00 | 0.00 | 0.00 | 69 | 1018.0 |
| 20260504041243 | 65 | 0 | 0.0 | 3.0 | 0.00 | 0.00 | 0.00 | 68 | 1018.1 |
| 20260504040728 | 66 | 0 | 0.0 | 3.0 | 0.00 | 0.00 | 0.00 | 68 | 1018.2 |
| 20260504040230 | 66 | 0 | 0.0 | 2.0 | 0.00 | 0.00 | 0.00 | 68 | 1018.2 |
| 20260504035704 | 66 | 0 | 0.0 | 3.0 | 0.00 | 0.00 | 0.00 | 67 | 1018.2 |
| 20260504035138 | 66 | 0 | 1.0 | 4.0 | 0.00 | 0.00 | 0.00 | 67 | 1018.1 |
| 20260504034857 | 66 | 0 | 1.0 | 4.0 | 0.00 | 0.00 | 0.00 | 66 | 1018.0 |
| 20260504034131 | 67 | 0 | 0.0 | 1.0 | 0.00 | 0.00 | 0.00 | 66 | 1018.1 |
| 20260504033629 | 67 | 0 | 0.0 | 2.0 | 0.00 | 0.00 | 0.00 | 65 | 1018.2 |
| 20260504033102 | 67 | 0 | 1.0 | 3.0 | 0.00 | 0.00 | 0.00 | 64 | 1018.2 |
| 20260504032559 | 67 | 0 | 1.0 | 3.0 | 0.00 | 0.00 | 0.00 | 64 | 1018.1 |
| 20260504032046 | 68 | 0 | 1.0 | 4.0 | 0.00 | 0.00 | 0.00 | 63 | 1018.1 |
| 20260504031548 | 68 | 0 | 1.0 | 4.0 | 0.00 | 0.00 | 0.00 | 63 | 1017.9 |
| 20260504031046 | 68 | 0 | 2.0 | 4.0 | 0.00 | 0.00 | 0.00 | 62 | 1017.8 |
| 20260504030542 | 68 | 0 | 2.0 | 4.0 | 0.00 | 0.00 | 0.00 | 62 | 1017.9 |
| 20260504030017 | 68 | 0 | 1.0 | 6.0 | 0.00 | 0.00 | 0.00 | 62 | 1017.8 |
| 20260504025450 | 68 | 0 | 1.0 | 6.0 | 0.00 | 0.00 | 0.00 | 62 | 1017.9 |
| 20260504024945 | 69 | 0 | 1.0 | 4.0 | 0.00 | 0.00 | 0.00 | 62 | 1017.8 |
| 20260504024422 | 69 | 0 | 1.0 | 4.0 | 0.00 | 0.00 | 0.00 | 61 | 1017.8 |
| 20260504023853 | 69 | 0 | 1.0 | 4.0 | 0.00 | 0.00 | 0.00 | 61 | 1017.9 |
| 20260504023352 | 69 | 0 | 1.0 | 3.0 | 0.00 | 0.00 | 0.00 | 60 | 1017.8 |
| 20260504022848 | 69 | 0 | 1.0 | 5.0 | 0.00 | 0.00 | 0.00 | 60 | 1017.8 |
| 20260504022345 | 70 | 0 | 2.0 | 5.0 | 0.00 | 0.00 | 0.00 | 59 | 1017.8 |
| 20260504021817 | 70 | 0 | 1.0 | 5.0 | 0.00 | 0.00 | 0.00 | 59 | 1017.7 |
| 20260504021315 | 70 | 0 | 1.0 | 5.0 | 0.00 | 0.00 | 0.00 | 58 | 1017.7 |
| 20260504020747 | 70 | 0 | 2.0 | 8.0 | 0.00 | 0.00 | 0.00 | 57 | 1017.6 |
| 20260504020244 | 71 | 0 | 2.0 | 5.0 | 0.00 | 0.00 | 0.00 | 58 | 1017.5 |
| 20260504015742 | 71 | 0 | 2.0 | 6.0 | 0.00 | 0.00 | 0.00 | 57 | 1017.5 |
| 20260504015239 | 71 | 154 | 2.0 | 6.0 | 0.00 | 0.00 | 0.00 | 57 | 1017.4 |
| 20260504014711 | 71 | 166 | 2.0 | 6.0 | 0.00 | 0.00 | 0.00 | 57 | 1017.4 |
| 20260504014209 | 71 | 0 | 1.0 | 7.0 | 0.00 | 0.00 | 0.00 | 57 | 1017.4 |
| 20260504013908 | 71 | 175 | 2.0 | 7.0 | 0.00 | 0.00 | 0.00 | 57 | 1017.4 |
| 20260504013407 | 71 | 0 | 1.0 | 4.0 | 0.00 | 0.00 | 0.00 | 56 | 1017.3 |
| 20260504012833 | 71 | 140 | 0.0 | 2.0 | 0.00 | 0.00 | 0.00 | 56 | 1017.2 |
| 20260504012045 | 72 | 140 | 1.0 | 4.0 | 0.00 | 0.00 | 0.00 | 56 | 1017.1 |
| 20260504011542 | 72 | 150 | 1.0 | 3.0 | 0.00 | 0.00 | 0.00 | 55 | 1017.0 |
| 20260504011224 | 73 | 150 | 1.0 | 2.0 | 0.00 | 0.00 | 0.00 | 54 | 1017.1 |
| 20260504011104 | 73 | 202 | 1.0 | 4.0 | 0.00 | 0.00 | 0.00 | 55 | 1017.0 |
| 20260504005945 | 73 | 149 | 1.0 | 3.0 | 0.00 | 0.00 | 0.00 | 53 | 1017.1 |
| 20260504005442 | 73 | 146 | 1.0 | 6.0 | 0.00 | 0.00 | 0.00 | 53 | 1017.0 |
| 20260504004917 | 74 | 139 | 2.0 | 6.0 | 0.00 | 0.00 | 0.00 | 51 | 1017.1 |
| 20260504004350 | 74 | 153 | 2.0 | 5.0 | 0.00 | 0.00 | 0.00 | 51 | 1017.1 |
| 20260504003846 | 75 | 144 | 1.0 | 3.0 | 0.00 | 0.00 | 0.00 | 50 | 1017.1 |
| 20260504003319 | 75 | 165 | 1.0 | 5.0 | 0.00 | 0.00 | 0.00 | 48 | 1017.2 |
| 20260504002816 | 76 | 144 | 1.0 | 6.0 | 0.00 | 0.00 | 0.00 | 47 | 1017.2 |
| 20260504002250 | 76 | 205 | 1.0 | 6.0 | 0.00 | 0.00 | 0.00 | 45 | 1017.2 |
| 20260504001746 | 77 | 172 | 1.0 | 2.0 | 0.00 | 0.00 | 0.00 | 45 | 1017.2 |
| 20260504001222 | 78 | 162 | 1.0 | 7.0 | 0.00 | 0.00 | 0.00 | 45 | 1017.0 |
| 20260504000657 | 78 | 163 | 2.0 | 7.0 | 0.00 | 0.00 | 0.00 | 43 | 1017.1 |
| 20260504000154 | 78 | 137 | 2.0 | 9.0 | 0.00 | 0.00 | 0.00 | 43 | 1017.1 |
| 20260503235650 | 79 | 158 | 2.0 | 9.0 | 0.00 | 0.00 | 0.00 | 43 | 1017.3 |
| 20260503235147 | 79 | 131 | 1.0 | 4.0 | 0.00 | 0.00 | 0.00 | 43 | 1017.3 |
| 20260503234644 | 79 | 229 | 1.0 | 5.0 | 0.00 | 0.00 | 0.00 | 44 | 1017.3 |
| 20260503234142 | 79 | 229 | 2.0 | 5.0 | 0.00 | 0.00 | 0.00 | 43 | 1017.3 |
| 20260503233638 | 80 | 129 | 2.0 | 4.0 | 0.00 | 0.00 | 0.00 | 44 | 1017.3 |
| 20260503233112 | 80 | 186 | 2.0 | 4.0 | 0.00 | 0.00 | 0.00 | 44 | 1017.3 |
| 20260503232608 | 80 | 182 | 1.0 | 5.0 | 0.00 | 0.00 | 0.00 | 43 | 1017.3 |
| 20260503232042 | 80 | 205 | 1.0 | 5.0 | 0.00 | 0.00 | 0.00 | 45 | 1017.3 |
| 20260503231537 | 80 | 196 | 1.0 | 5.0 | 0.00 | 0.00 | 0.00 | 44 | 1017.4 |
| 20260503231031 | 80 | 192 | 1.0 | 6.0 | 0.00 | 0.00 | 0.00 | 45 | 1017.4 |
| 20260503230528 | 80 | 189 | 2.0 | 6.0 | 0.00 | 0.00 | 0.00 | 43 | 1017.4 |
| 20260503225959 | 80 | 195 | 2.0 | 5.0 | 0.00 | 0.00 | 0.00 | 44 | 1017.4 |
| 20260503225457 | 80 | 161 | 2.0 | 5.0 | 0.00 | 0.00 | 0.00 | 45 | 1017.4 |
| 20260503224930 | 80 | 140 | 2.0 | 4.0 | 0.00 | 0.00 | 0.00 | 43 | 1017.5 |
| 20260503224428 | 80 | 132 | 1.0 | 5.0 | 0.00 | 0.00 | 0.00 | 43 | 1017.7 |
| 20260503223924 | 80 | 175 | 2.0 | 5.0 | 0.00 | 0.00 | 0.00 | 45 | 1017.6 |
| 20260503223358 | 80 | 169 | 3.0 | 5.0 | 0.00 | 0.00 | 0.00 | 42 | 1017.6 |
| 20260503222856 | 80 | 166 | 2.0 | 4.0 | 0.00 | 0.00 | 0.00 | 45 | 1017.8 |
| 20260503222327 | 80 | 159 | 2.0 | 5.0 | 0.00 | 0.00 | 0.00 | 44 | 1017.8 |
| 20260503222048 | 80 | 196 | 2.0 | 5.0 | 0.00 | 0.00 | 0.00 | 43 | 1017.9 |
| 20260503221322 | 80 | 178 | 2.0 | 5.0 | 0.00 | 0.00 | 0.00 | 42 | 1018.0 |
| 20260503220756 | 80 | 187 | 3.0 | 7.0 | 0.00 | 0.00 | 0.00 | 41 | 1018.0 |
| 20260503220252 | 80 | 142 | 3.0 | 7.0 | 0.00 | 0.00 | 0.00 | 41 | 1018.0 |
| 20260503215750 | 80 | 224 | 2.0 | 7.0 | 0.00 | 0.00 | 0.00 | 42 | 1018.0 |
| 20260503215246 | 80 | 150 | 1.0 | 4.0 | 0.00 | 0.00 | 0.00 | 41 | 1018.0 |
| 20260503214719 | 80 | 188 | 1.0 | 4.0 | 0.00 | 0.00 | 0.00 | 38 | 1018.0 |
| 20260503214218 | 80 | 152 | 2.0 | 5.0 | 0.00 | 0.00 | 0.00 | 44 | 1018.0 |
| 20260503213915 | 81 | 178 | 2.0 | 5.0 | 0.00 | 0.00 | 0.00 | 43 | 1018.2 |
| 20260503213127 | 81 | 241 | 2.0 | 7.0 | 0.00 | 0.00 | 0.00 | 41 | 1018.5 |
| 20260503212559 | 81 | 165 | 1.0 | 4.0 | 0.00 | 0.00 | 0.00 | 43 | 1018.5 |
| 20260503212032 | 81 | 179 | 1.0 | 4.0 | 0.00 | 0.00 | 0.00 | 41 | 1018.6 |
| 20260503211528 | 81 | 190 | 2.0 | 4.0 | 0.00 | 0.00 | 0.00 | 43 | 1018.6 |
| 20260503211003 | 82 | 107 | 2.0 | 5.0 | 0.00 | 0.00 | 0.00 | 43 | 1018.8 |
| 20260503210656 | 82 | 123 | 1.0 | 5.0 | 0.00 | 0.00 | 0.00 | 43 | 1018.7 |
| 20260503205933 | 82 | 156 | 2.0 | 5.0 | 0.00 | 0.00 | 0.00 | 41 | 1018.7 |
| 20260503205406 | 81 | 191 | 2.0 | 5.0 | 0.00 | 0.00 | 0.00 | 41 | 1018.8 |
| 20260503204904 | 81 | 155 | 2.0 | 4.0 | 0.00 | 0.00 | 0.00 | 44 | 1018.9 |
| 20260503204400 | 82 | 178 | 2.0 | 5.0 | 0.00 | 0.00 | 0.00 | 42 | 1019.1 |
| 20260503203835 | 82 | 142 | 2.0 | 6.0 | 0.00 | 0.00 | 0.00 | 42 | 1019.2 |
| 20260503203332 | 82 | 81 | 2.0 | 6.0 | 0.00 | 0.00 | 0.00 | 43 | 1019.2 |
| 20260503202829 | 82 | 148 | 1.0 | 4.0 | 0.00 | 0.00 | 0.00 | 41 | 1019.3 |
| 20260503202301 | 83 | 143 | 1.0 | 4.0 | 0.00 | 0.00 | 0.00 | 47 | 1019.4 |
| 20260503201759 | 81 | 203 | 1.0 | 5.0 | 0.00 | 0.00 | 0.00 | 43 | 1019.5 |
| 20260503201232 | 81 | 105 | 1.0 | 5.0 | 0.00 | 0.00 | 0.00 | 42 | 1019.6 |
| 20260503200728 | 83 | 137 | 2.0 | 7.0 | 0.00 | 0.00 | 0.00 | 42 | 1019.8 |
| 20260503200201 | 82 | 146 | 2.0 | 7.0 | 0.00 | 0.00 | 0.00 | 45 | 1019.9 |
| 20260503195659 | 82 | 98 | 2.0 | 6.0 | 0.00 | 0.00 | 0.00 | 48 | 1019.9 |
| 20260503195356 | 81 | 136 | 2.0 | 6.0 | 0.00 | 0.00 | 0.00 | 43 | 1020.0 |
| 20260503194852 | 81 | 174 | 2.0 | 5.0 | 0.00 | 0.00 | 0.00 | 44 | 1020.0 |
| 20260503194108 | 80 | 12 | 2.0 | 5.0 | 0.00 | 0.00 | 0.00 | 42 | 1020.0 |
| 20260503193605 | 81 | 146 | 3.0 | 8.0 | 0.00 | 0.00 | 0.00 | 42 | 1020.2 |
| 20260503193040 | 82 | 119 | 3.0 | 8.0 | 0.00 | 0.00 | 0.00 | 46 | 1020.4 |
| 20260503192540 | 81 | 175 | 3.0 | 10.0 | 0.00 | 0.00 | 0.00 | 43 | 1020.3 |
| 20260503192014 | 82 | 130 | 3.0 | 10.0 | 0.00 | 0.00 | 0.00 | 43 | 1020.4 |
| 20260503191512 | 81 | 126 | 2.0 | 7.0 | 0.00 | 0.00 | 0.00 | 44 | 1020.5 |
| 20260503191010 | 80 | 136 | 2.0 | 6.0 | 0.00 | 0.00 | 0.00 | 42 | 1020.5 |
| 20260503190509 | 80 | 250 | 1.0 | 5.0 | 0.00 | 0.00 | 0.00 | 43 | 1020.7 |
| 20260503190008 | 80 | 188 | 1.0 | 5.0 | 0.00 | 0.00 | 0.00 | 45 | 1020.6 |
| 20260503185706 | 80 | 161 | 1.0 | 4.0 | 0.00 | 0.00 | 0.00 | 45 | 1020.7 |
| 20260503184916 | 80 | 40 | 2.0 | 9.0 | 0.00 | 0.00 | 0.00 | 41 | 1020.8 |
| 20260503184417 | 80 | 34 | 3.0 | 9.0 | 0.00 | 0.00 | 0.00 | 41 | 1020.8 |
| 20260503184133 | 80 | 175 | 3.0 | 7.0 | 0.00 | 0.00 | 0.00 | 43 | 1021.0 |
| 20260503183415 | 81 | 80 | 2.0 | 6.0 | 0.00 | 0.00 | 0.00 | 44 | 1021.0 |
| 20260503182850 | 80 | 172 | 1.0 | 6.0 | 0.00 | 0.00 | 0.00 | 48 | 1021.1 |
| 20260503182350 | 80 | 211 | 1.0 | 6.0 | 0.00 | 0.00 | 0.00 | 49 | 1021.2 |
| 20260503182046 | 79 | 214 | 1.0 | 5.0 | 0.00 | 0.00 | 0.00 | 44 | 1021.4 |
| 20260503181322 | 80 | 130 | 2.0 | 4.0 | 0.00 | 0.00 | 0.00 | 45 | 1021.5 |
| 20260503180758 | 81 | 147 | 2.0 | 4.0 | 0.00 | 0.00 | 0.00 | 43 | 1021.5 |
| 20260503180237 | 80 | 178 | 2.0 | 4.0 | 0.00 | 0.00 | 0.00 | 47 | 1021.6 |
| 20260503175711 | 80 | 232 | 2.0 | 7.0 | 0.00 | 0.00 | 0.00 | 46 | 1021.7 |
| 20260503175208 | 80 | 153 | 2.0 | 7.0 | 0.00 | 0.00 | 0.00 | 50 | 1021.9 |
| 20260503174649 | 79 | 287 | 2.0 | 6.0 | 0.00 | 0.00 | 0.00 | 44 | 1021.9 |
| 20260503174125 | 79 | 153 | 2.0 | 5.0 | 0.00 | 0.00 | 0.00 | 49 | 1022.1 |
| 20260503173558 | 79 | 315 | 2.0 | 6.0 | 0.00 | 0.00 | 0.00 | 40 | 1022.2 |
| 20260503173321 | 80 | 17 | 2.0 | 7.0 | 0.00 | 0.00 | 0.00 | 42 | 1022.3 |
| 20260503172531 | 80 | 135 | 2.0 | 7.0 | 0.00 | 0.00 | 0.00 | 47 | 1022.4 |
| 20260503172004 | 79 | 108 | 2.0 | 7.0 | 0.00 | 0.00 | 0.00 | 44 | 1022.5 |
| 20260503171444 | 79 | 163 | 2.0 | 7.0 | 0.00 | 0.00 | 0.00 | 46 | 1022.5 |
| 20260503171204 | 79 | 253 | 1.0 | 5.0 | 0.00 | 0.00 | 0.00 | 44 | 1022.6 |
| 20260503170414 | 79 | 166 | 1.0 | 5.0 | 0.00 | 0.00 | 0.00 | 46 | 1022.6 |
| 20260503160117 | 79 | 124 | 2.0 | 5.0 | 0.00 | 0.00 | 0.00 | 51 | 1022.8 |
| 20260503151001 | 76 | 162 | 1.0 | 5.0 | 0.00 | 0.00 | 0.00 | 58 | 1022.5 |
| 20260503150448 | 76 | 180 | 1.0 | 5.0 | 0.00 | 0.00 | 0.00 | 57 | 1022.5 |
| 20260503140218 | 67 | 246 | 0.0 | 1.0 | 0.00 | 0.00 | 0.00 | 86 | 1022.4 |
| 20260503131121 | 60 | 5 | 0.0 | 1.0 | 0.00 | 0.00 | 0.00 | 97 | 1021.9 |
| 20260503130620 | 60 | 5 | 0.0 | 1.0 | 0.00 | 0.00 | 0.00 | 97 | 1021.9 |
| 20260503130117 | 59 | 5 | 0.0 | 0.0 | 0.00 | 0.00 | 0.00 | 97 | 1022.0 |